TimeMST,TemperatureF,Dew PointF,Humidity,Sea Level PressureIn,VisibilityMPH,Wind Direction,Wind SpeedMPH,Gust SpeedMPH,PrecipitationIn,Events,Conditions,WindDirDegrees,DateUTC
12:57 AM,50.0,18.0,28,29.81,10.0,Calm,Calm,-,N/A,,Clear,0,2013-05-17 07:57:00
1:57 AM,46.9,19.0,33,29.80,10.0,SSW,5.8,-,N/A,,Clear,210,2013-05-17 08:57:00
2:57 AM,46.9,18.0,32,29.80,10.0,SW,3.5,-,N/A,,Clear,220,2013-05-17 09:57:00
3:57 AM,46.0,18.0,33,29.81,10.0,SW,5.8,-,N/A,,Clear,220,2013-05-17 10:57:00
4:57 AM,41.0,19.0,41,29.83,10.0,Calm,Calm,-,N/A,,Clear,0,2013-05-17 11:57:00
5:57 AM,37.9,18.0,45,29.87,10.0,Calm,Calm,-,N/A,,Clear,0,2013-05-17 12:57:00
6:57 AM,53.1,21.9,30,29.85,10.0,Calm,Calm,-,N/A,,Clear,0,2013-05-17 13:57:00
7:57 AM,57.0,21.0,25,29.84,10.0,SSW,8.1,-,N/A,,Clear,200,2013-05-17 14:57:00
8:57 AM,59.0,24.1,26,29.85,10.0,SW,15.0,27.6,N/A,,Clear,220,2013-05-17 15:57:00
9:57 AM,62.1,23.0,22,29.86,10.0,SSW,13.8,21.9,N/A,,Clear,200,2013-05-17 16:57:00
10:57 AM,62.1,21.9,21,29.87,10.0,SSW,11.5,20.7,N/A,,Clear,210,2013-05-17 17:57:00
11:57 AM,64.0,23.0,21,29.85,10.0,SW,26.5,36.8,N/A,,Clear,230,2013-05-17 18:57:00
12:57 PM,64.0,23.0,21,29.86,10.0,SW,17.3,36.8,N/A,,Clear,220,2013-05-17 19:57:00
1:57 PM,64.9,21.9,19,29.86,10.0,SW,24.2,29.9,N/A,,Clear,220,2013-05-17 20:57:00
2:57 PM,66.0,24.1,20,29.85,10.0,SW,25.3,34.5,N/A,,Clear,220,2013-05-17 21:57:00
3:57 PM,63.0,24.1,23,29.86,10.0,SW,20.7,31.1,N/A,,Clear,220,2013-05-17 22:57:00
4:57 PM,61.0,24.1,24,29.88,10.0,SW,19.6,32.2,N/A,,Partly Cloudy,220,2013-05-17 23:57:00
5:57 PM,60.1,21.9,23,29.89,10.0,SW,23.0,29.9,N/A,,Clear,220,2013-05-18 00:57:00
6:57 PM,57.9,23.0,26,29.83,10.0,SW,16.1,25.3,N/A,,Clear,220,2013-05-18 01:57:00
7:57 PM,55.0,23.0,29,29.84,10.0,WSW,5.8,-,N/A,,Clear,240,2013-05-18 02:57:00
8:57 PM,52.0,23.0,32,29.86,10.0,SW,4.6,-,N/A,,Clear,230,2013-05-18 03:57:00
9:57 PM,50.0,23.0,35,29.87,10.0,SW,6.9,-,N/A,,Clear,220,2013-05-18 04:57:00
10:57 PM,52.0,21.0,30,29.86,10.0,WSW,6.9,-,N/A,,Clear,250,2013-05-18 05:57:00
11:57 PM,51.1,21.9,32,29.85,10.0,WSW,6.9,-,N/A,,Clear,240,2013-05-18 06:57:00